| time (UTC) | temp C | wind direction | speed KPH | gust KPH | rain 1hr cm | rain 24hr cm | rain mn cm | humidity % | barometer mb |
| 20260505093103 | 16 | 99 | 0.0 | 1.6 | 0.03 | 0.03 | 0.03 | 77 | 1005.1 |
| 20260505091612 | 16 | 96 | 0.0 | 3.2 | 0.03 | 0.03 | 0.03 | 77 | 1005.0 |
| 20260505090058 | 16 | 122 | 0.0 | 11.3 | 0.03 | 0.03 | 0.03 | 77 | 1005.3 |
| 20260505084557 | 16 | 117 | 0.0 | 8.0 | 0.03 | 0.03 | 0.03 | 77 | 1005.6 |
| 20260505083053 | 17 | 107 | 0.0 | 3.2 | 0.00 | 0.00 | 0.00 | 73 | 1005.6 |
| 20260505081553 | 18 | 79 | 0.0 | 4.8 | 0.00 | 0.00 | 0.00 | 69 | 1005.8 |
| 20260505080054 | 18 | 49 | 0.0 | 8.0 | 0.00 | 0.00 | 0.00 | 68 | 1006.0 |
| 20260505074546 | 18 | 329 | 0.0 | 9.7 | 0.00 | 0.03 | 0.00 | 70 | 1006.2 |
| 20260505073046 | 19 | 360 | 14.5 | 25.7 | 0.00 | 0.03 | 0.00 | 68 | 1006.7 |
| 20260505071539 | 19 | 160 | 0.0 | 17.7 | 0.00 | 0.03 | 0.00 | 66 | 1005.0 |
| 20260505070046 | 20 | 182 | 0.0 | 19.3 | 0.00 | 0.03 | 0.00 | 65 | 1004.6 |
| 20260505064535 | 20 | 186 | 6.4 | 24.1 | 0.00 | 0.23 | 0.00 | 65 | 1004.6 |
| 20260505063033 | 20 | 190 | 1.6 | 24.1 | 0.00 | 0.23 | 0.00 | 64 | 1004.6 |
| 20260505061538 | 20 | 179 | 1.6 | 24.1 | 0.00 | 0.23 | 0.00 | 64 | 1004.4 |
| 20260505060028 | 20 | 174 | 6.4 | 40.2 | 0.00 | 0.23 | 0.00 | 63 | 1004.3 |
| 20260505054534 | 20 | 138 | 4.8 | 29.0 | 0.00 | 0.23 | 0.00 | 62 | 1004.1 |
| 20260505053028 | 20 | 146 | 8.0 | 38.6 | 0.00 | 0.23 | 0.00 | 61 | 1004.1 |
| 20260505051521 | 21 | 156 | 8.0 | 33.8 | 0.00 | 0.23 | 0.00 | 61 | 1003.8 |
| 20260505041529 | 21 | 144 | 8.0 | 32.2 | 0.00 | 0.23 | 0.23 | 60 | 1003.6 |
| 20260505040016 | 21 | 127 | 4.8 | 40.2 | 0.00 | 0.23 | 0.23 | 59 | 1003.8 |
| 20260505034521 | 21 | 192 | 8.0 | 35.4 | 0.00 | 0.23 | 0.23 | 58 | 1003.9 |
| 20260505033016 | 21 | 134 | 6.4 | 25.7 | 0.00 | 0.23 | 0.23 | 57 | 1004.0 |
| 20260505031523 | 22 | 152 | 1.6 | 30.6 | 0.00 | 0.23 | 0.23 | 57 | 1004.0 |
| 20260505030012 | 22 | 178 | 8.0 | 32.2 | 0.00 | 0.23 | 0.23 | 56 | 1003.8 |
| 20260505024511 | 22 | 138 | 6.4 | 32.2 | 0.00 | 0.23 | 0.23 | 55 | 1003.4 |
| 20260505023110 | 22 | 136 | 8.0 | 30.6 | 0.00 | 0.23 | 0.23 | 54 | 1003.4 |
| 20260505021510 | 22 | 190 | 9.7 | 32.2 | 0.00 | 0.23 | 0.23 | 54 | 1003.1 |
| 20260505020009 | 22 | 180 | 6.4 | 37.0 | 0.00 | 0.23 | 0.23 | 54 | 1003.0 |
| 20260505014509 | 22 | 150 | 4.8 | 25.7 | 0.00 | 0.23 | 0.23 | 53 | 1002.8 |
| 20260505013009 | 22 | 159 | 9.7 | 35.4 | 0.00 | 0.23 | 0.23 | 53 | 1002.7 |
| 20260505011506 | 23 | 173 | 3.2 | 25.7 | 0.00 | 0.23 | 0.23 | 52 | 1002.6 |
| 20260505010005 | 23 | 172 | 6.4 | 41.8 | 0.00 | 0.23 | 0.23 | 52 | 1002.3 |
| 20260505004505 | 23 | 121 | 3.2 | 32.2 | 0.00 | 0.23 | 0.23 | 51 | 1002.3 |
| 20260505003004 | 23 | 161 | 6.4 | 35.4 | 0.00 | 0.23 | 0.23 | 51 | 1002.2 |
| 20260505001504 | 24 | 151 | 4.8 | 29.0 | 0.00 | 0.23 | 0.23 | 50 | 1002.0 |
| 20260505000006 | 24 | 140 | 14.5 | 27.4 | 0.00 | 0.23 | 0.23 | 49 | 1002.0 |
| 20260504234502 | 25 | 157 | 16.1 | 35.4 | 0.00 | 0.23 | 0.23 | 49 | 1001.9 |
| 20260504233112 | 25 | 153 | 11.3 | 32.2 | 0.00 | 0.23 | 0.23 | 48 | 1002.2 |
| 20260504231601 | 24 | 157 | 9.7 | 27.4 | 0.00 | 0.23 | 0.23 | 50 | 1002.2 |
| 20260504230055 | 24 | 150 | 8.0 | 38.6 | 0.00 | 0.23 | 0.23 | 50 | 1002.6 |
| 20260504224558 | 24 | 136 | 12.9 | 30.6 | 0.00 | 0.23 | 0.23 | 50 | 1002.7 |
| 20260504223107 | 24 | 137 | 14.5 | 29.0 | 0.00 | 0.23 | 0.23 | 52 | 1002.7 |
| 20260504221544 | 23 | 130 | 9.7 | 29.0 | 0.00 | 0.23 | 0.23 | 55 | 1002.7 |
| 20260504220043 | 23 | 142 | 9.7 | 37.0 | 0.00 | 0.23 | 0.23 | 56 | 1002.8 |
| 20260504214539 | 22 | 146 | 16.1 | 25.7 | 0.00 | 0.23 | 0.23 | 60 | 1002.8 |
| 20260504213049 | 21 | 132 | 0.0 | 27.4 | 0.00 | 0.23 | 0.23 | 62 | 1003.1 |
| 20260504211535 | 20 | 133 | 6.4 | 27.4 | 0.00 | 0.23 | 0.23 | 64 | 1003.0 |
| 20260504210035 | 19 | 132 | 3.2 | 27.4 | 0.00 | 0.23 | 0.23 | 71 | 1003.5 |
| 20260504204541 | 18 | 131 | 16.1 | 25.7 | 0.00 | 0.23 | 0.23 | 75 | 1003.9 |
| 20260504203030 | 18 | 127 | 11.3 | 24.1 | 0.00 | 0.23 | 0.23 | 73 | 1004.1 |
| 20260504201528 | 19 | 120 | 19.3 | 37.0 | 0.00 | 0.23 | 0.23 | 68 | 1003.8 |
| 20260504200025 | 19 | 123 | 1.6 | 11.3 | 0.00 | 0.23 | 0.23 | 70 | 1005.1 |
| 20260504194523 | 19 | 350 | 0.0 | 0.0 | 0.00 | 0.23 | 0.23 | 68 | 1006.5 |
| 20260504193026 | 19 | 340 | 0.0 | 0.0 | 0.00 | 0.23 | 0.23 | 68 | 1005.9 |
| 20260504191525 | 19 | 355 | 0.0 | 0.0 | 0.00 | 0.23 | 0.23 | 68 | 1005.9 |
| 20260504190022 | 20 | 343 | 0.0 | 1.6 | 0.00 | 0.23 | 0.23 | 67 | 1005.8 |
| 20260504184521 | 21 | 182 | 0.0 | 0.0 | 0.00 | 0.23 | 0.23 | 63 | 1005.8 |
| 20260504183021 | 21 | 182 | 0.0 | 0.0 | 0.00 | 0.23 | 0.23 | 60 | 1005.4 |
| 20260504181520 | 21 | 172 | 0.0 | 16.1 | 0.00 | 0.23 | 0.23 | 60 | 1005.3 |
| 20260504180020 | 20 | 135 | 0.0 | 19.3 | 0.00 | 0.23 | 0.23 | 62 | 1005.2 |
| 20260504174519 | 20 | 144 | 0.0 | 16.1 | 0.00 | 0.23 | 0.23 | 63 | 1005.4 |
| 20260504173018 | 20 | 148 | 3.2 | 19.3 | 0.00 | 0.23 | 0.23 | 64 | 1005.6 |
| 20260504171514 | 20 | 152 | 0.0 | 17.7 | 0.00 | 0.23 | 0.23 | 63 | 1006.2 |